MST,Max TemperatureF,Mean TemperatureF,Min TemperatureF,Max Dew PointF,MeanDew PointF,Min DewpointF,Max Humidity, Mean Humidity, Min Humidity, Max Sea Level PressureIn, Mean Sea Level PressureIn, Min Sea Level PressureIn, Max VisibilityMiles, Mean VisibilityMiles, Min VisibilityMiles, Max Wind SpeedMPH, Mean Wind SpeedMPH, Max Gust SpeedMPH,PrecipitationIn, CloudCover, Events, WindDirDegrees
2013-11-1,48,36,25,25,20,14,76,46,31,30.30,30.08,29.82,10,10,10,18,11,24,0.00,1,,338
2013-11-2,57,38,19,25,19,16,88,57,20,30.34,30.20,30.01,10,10,10,15,9,18,0.00,0,,85
2013-11-3,,,,,,,,,,,,,,,,,,,0.00,,,-1
2013-11-4,38,30,23,27,22,14,93,69,43,30.04,29.97,29.68,10,10,5,23,11,28,0.00,4,Snow,151
2013-11-5,38,27,13,26,16,5,80,56,32,30.29,30.03,29.86,10,10,5,24,8,32,0.00,3,Rain-Snow,14
2013-11-6,51,30,10,10,7,2,76,36,17,30.39,30.30,30.19,10,10,10,20,8,24,0.00,0,,344
2013-11-7,53,36,18,16,13,10,70,44,22,30.53,30.34,30.09,10,10,10,14,8,17,0.00,0,,60
2013-11-8,67,46,26,15,9,-2,61,22,6,30.05,29.92,29.77,10,10,10,23,9,31,0.00,0,,322
2013-11-9,56,42,28,22,20,14,70,45,26,30.29,30.15,29.98,10,10,10,14,8,18,0.00,0,,72
2013-11-10,64,44,23,25,21,12,86,51,13,30.35,30.24,30.13,10,10,10,12,7,,0.00,0,,23
2013-11-11,63,46,27,29,20,8,92,55,11,30.60,30.38,30.17,10,10,9,16,6,29,0.00,2,,16
2013-11-12,54,38,23,27,24,20,96,69,30,30.75,30.59,30.47,10,9,7,12,5,,0.00,2,Snow,360
2013-11-13,65,45,25,20,4,-12,79,25,4,30.39,30.17,29.93,10,10,10,12,7,,0.00,0,,351
2013-11-14,55,42,28,29,23,8,84,47,26,30.08,29.93,29.81,10,10,10,21,9,20,0.00,0,,13
2013-11-15,59,42,24,23,15,8,90,38,13,29.80,29.60,29.39,10,10,10,29,11,47,0.01,0,,263
2013-11-16,55,46,35,29,14,7,72,28,14,29.53,29.39,29.22,10,10,10,38,17,56,0.14,0,Rain,256
2013-11-17,52,40,27,19,14,9,65,39,18,30.15,29.85,29.50,10,10,10,17,9,28,0.00,0,,85
2013-11-18,55,36,17,11,8,2,66,38,12,30.25,30.16,30.06,10,10,10,14,6,,0.00,0,,335
2013-11-19,58,41,24,15,10,4,59,30,13,30.02,29.82,29.73,10,10,10,13,7,21,0.00,2,,342
2013-11-20,54,41,28,32,20,16,71,42,24,29.92,29.81,29.70,10,10,10,15,5,,0.00,1,Rain,54
2013-11-21,41,26,10,32,14,5,93,79,68,30.67,30.17,29.92,10,6,2,24,16,32,0.00,8,Rain-Snow,353
2013-11-22,28,22,15,23,15,7,89,79,66,30.70,30.54,30.42,10,9,4,16,9,,0.00,3,Snow,333
2013-11-23,28,24,20,19,15,4,93,72,42,30.69,30.54,30.32,10,10,7,16,10,22,0.00,7,Snow,155
2013-11-24,34,26,19,32,21,16,100,87,48,30.43,30.10,29.91,10,5,0,28,10,43,0.02,6,Fog-Rain-Snow,159
2013-11-25,35,29,21,25,19,12,80,62,40,30.41,30.15,29.95,10,8,1,39,25,53,0.01,5,Rain-Snow,345
2013-11-26,43,30,17,20,16,13,82,61,32,30.48,30.42,30.37,10,10,10,17,8,24,0.00,2,,355
2013-11-27,54,36,17,21,15,11,83,55,18,30.36,30.22,30.10,10,10,10,13,9,,0.00,0,,6
2013-11-28,42,32,21,25,21,17,92,68,46,30.34,30.25,30.10,10,10,10,13,7,,0.00,1,,170
2013-11-29,57,39,21,26,17,7,100,65,14,30.20,30.14,30.08,10,6,0,16,5,25,0.00,2,Fog,348
2013-11-30,56,40,25,13,7,1,57,29,11,30.26,30.14,30.01,10,10,10,13,7,,0.00,0,,340